Time,TemperatureF,DewpointF,PressureIn,WindDirection,WindDirectionDegrees,WindSpeedMPH,WindSpeedGustMPH,Humidity,HourlyPrecipIn,Conditions,Clouds,dailyrainin,SoftwareType,DateUTC
2013-09-29 00:00:00,48.1,46.2,30.29,SSE,152,0.0,0.0,93,0.00,,BKN055,0.00,VWS V14.01,2013-09-29 04:00:00,
2013-09-29 00:01:00,48.0,46.1,30.29,SSE,152,0.0,0.0,93,0.00,,CLR,0.00,VWS V14.01,2013-09-29 04:01:00,
2013-09-29 00:02:00,48.0,46.1,30.29,SSE,152,0.0,0.0,93,0.00,,CLR,0.00,VWS V14.01,2013-09-29 04:02:00,
2013-09-29 00:07:00,47.9,46.0,30.29,SSE,151,0.0,0.0,93,0.00,,CLR,0.00,VWS V14.01,2013-09-29 04:07:00,
2013-09-29 00:12:00,47.8,46.2,30.29,SSE,151,0.0,0.0,94,0.00,,CLR,0.00,VWS V14.01,2013-09-29 04:12:00,
2013-09-29 00:17:00,47.9,46.3,30.29,SSE,152,0.0,0.0,94,0.00,,CLR,0.00,VWS V14.01,2013-09-29 04:17:00,
2013-09-29 00:22:00,48.0,46.6,30.29,SSE,151,0.0,0.0,95,0.00,,CLR,0.00,VWS V14.01,2013-09-29 04:22:00,
2013-09-29 00:27:00,48.1,46.7,30.29,SSE,151,0.0,0.0,95,0.00,,CLR,0.00,VWS V14.01,2013-09-29 04:27:00,
2013-09-29 00:32:00,47.9,46.5,30.29,SSE,151,0.0,0.0,95,0.00,,CLR,0.08,VWS V14.01,2013-09-29 04:32:00,
2013-09-29 00:37:00,48.0,46.9,30.29,ENE,76,0.0,1.0,96,0.00,,CLR,0.00,VWS V14.01,2013-09-29 04:37:00,
2013-09-29 00:42:00,48.0,46.6,30.29,ENE,76,0.0,1.0,95,0.00,,CLR,0.00,VWS V14.01,2013-09-29 04:42:00,
2013-09-29 00:47:00,48.1,47.0,30.29,ENE,76,0.0,2.0,96,0.00,,CLR,0.00,VWS V14.01,2013-09-29 04:47:00,
2013-09-29 00:52:00,48.1,47.0,30.29,ENE,76,0.0,2.0,96,0.00,,CLR,0.00,VWS V14.01,2013-09-29 04:52:00,
2013-09-29 00:57:00,48.1,47.0,30.29,ENE,76,0.0,2.0,96,0.00,,CLR,0.00,VWS V14.01,2013-09-29 04:57:00,
2013-09-29 01:02:00,48.0,46.9,30.29,ENE,76,0.0,0.0,96,0.00,,CLR,0.00,VWS V14.01,2013-09-29 05:02:00,
2013-09-29 01:07:00,47.9,46.8,30.29,ENE,76,0.0,0.0,96,0.00,,CLR,0.00,VWS V14.01,2013-09-29 05:07:00,
2013-09-29 01:12:00,47.8,46.7,30.29,ENE,76,0.0,0.0,96,0.00,,CLR,0.00,VWS V14.01,2013-09-29 05:12:00,
2013-09-29 01:17:00,47.7,46.6,30.29,ENE,76,0.0,0.0,96,0.00,,CLR,0.00,VWS V14.01,2013-09-29 05:17:00,
2013-09-29 01:22:00,47.5,46.4,30.29,ENE,76,0.0,0.0,96,0.00,,CLR,0.00,VWS V14.01,2013-09-29 05:22:00,
2013-09-29 01:27:00,47.4,46.3,30.29,ENE,76,0.0,0.0,96,0.00,,CLR,0.00,VWS V14.01,2013-09-29 05:27:00,
2013-09-29 01:32:00,47.2,46.1,30.29,ENE,76,0.0,0.0,96,0.00,,CLR,0.00,VWS V14.01,2013-09-29 05:32:00,
2013-09-29 01:37:00,47.1,46.0,30.29,ENE,76,0.0,0.0,96,0.00,,CLR,0.00,VWS V14.01,2013-09-29 05:37:00,
2013-09-29 01:42:00,47.0,45.9,30.28,ENE,76,0.0,0.0,96,0.00,,CLR,0.00,VWS V14.01,2013-09-29 05:42:00,
2013-09-29 01:47:00,46.9,45.8,30.28,ENE,76,0.0,0.0,96,0.00,,CLR,0.00,VWS V14.01,2013-09-29 05:47:00,
2013-09-29 01:52:00,46.8,45.7,30.28,ENE,76,0.0,1.0,96,0.00,,CLR,0.00,VWS V14.01,2013-09-29 05:52:00,
2013-09-29 01:57:00,46.8,45.7,30.28,ENE,76,0.0,1.0,96,0.00,,CLR,0.00,VWS V14.01,2013-09-29 05:57:00,
2013-09-29 02:02:00,46.6,45.5,30.28,ENE,76,0.0,0.0,96,0.00,,CLR,0.00,VWS V14.01,2013-09-29 06:02:00,
2013-09-29 02:07:00,46.5,45.4,30.28,ENE,76,0.0,0.0,96,0.00,,CLR,0.00,VWS V14.01,2013-09-29 06:07:00,
2013-09-29 02:12:00,46.4,45.3,30.28,ENE,76,0.0,0.0,96,0.00,,CLR,0.00,VWS V14.01,2013-09-29 06:12:00,
2013-09-29 02:17:00,46.3,45.2,30.27,ENE,76,0.0,0.0,96,0.00,,CLR,0.00,VWS V14.01,2013-09-29 06:17:00,
2013-09-29 02:22:00,46.2,45.1,30.27,ENE,76,0.0,0.0,96,0.00,,CLR,0.00,VWS V14.01,2013-09-29 06:22:00,
2013-09-29 02:27:00,46.1,45.0,30.27,ENE,76,0.0,0.0,96,0.00,,CLR,0.00,VWS V14.01,2013-09-29 06:27:00,
2013-09-29 02:32:00,46.0,44.9,30.27,ENE,76,0.0,0.0,96,0.00,,CLR,0.00,VWS V14.01,2013-09-29 06:32:00,
2013-09-29 02:37:00,45.9,45.1,30.27,ENE,76,0.0,0.0,97,0.00,,CLR,0.00,VWS V14.01,2013-09-29 06:37:00,
2013-09-29 02:42:00,45.8,44.7,30.27,ENE,76,0.0,0.0,96,0.00,,CLR,0.00,VWS V14.01,2013-09-29 06:42:00,
2013-09-29 02:47:00,45.6,44.8,30.27,ENE,76,0.0,0.0,97,0.00,,CLR,0.00,VWS V14.01,2013-09-29 06:47:00,
2013-09-29 02:52:00,45.5,44.4,30.27,ENE,76,0.0,0.0,96,0.00,,CLR,0.00,VWS V14.01,2013-09-29 06:52:00,
2013-09-29 02:57:00,45.4,44.3,30.27,ENE,76,0.0,0.0,96,0.00,,CLR,0.00,VWS V14.01,2013-09-29 06:57:00,
2013-09-29 03:02:00,45.3,44.5,30.26,ENE,76,0.0,0.0,97,0.00,,,0.00,VWS V14.01,2013-09-29 07:02:00,
2013-09-29 03:07:00,45.3,44.5,30.26,ENE,76,0.0,0.0,97,0.00,,,0.00,VWS V14.01,2013-09-29 07:07:00,
2013-09-29 03:12:00,45.2,44.4,30.26,ENE,76,0.0,0.0,97,0.00,,,0.00,VWS V14.01,2013-09-29 07:12:00,
2013-09-29 03:17:00,45.1,44.3,30.26,ENE,76,0.0,0.0,97,0.00,,,0.00,VWS V14.01,2013-09-29 07:17:00,
2013-09-29 03:22:00,45.0,44.2,30.26,ENE,76,0.0,0.0,97,0.00,,,0.00,VWS V14.01,2013-09-29 07:22:00,
2013-09-29 03:27:00,44.8,43.7,30.26,ENE,76,0.0,0.0,96,0.00,,,0.00,VWS V14.01,2013-09-29 07:27:00,
2013-09-29 03:32:00,44.6,43.8,30.26,ENE,76,0.0,0.0,97,0.00,,,0.00,VWS V14.01,2013-09-29 07:32:00,
2013-09-29 03:37:00,44.5,43.7,30.26,ENE,76,0.0,0.0,97,0.00,,,0.00,VWS V14.01,2013-09-29 07:37:00,
2013-09-29 03:42:00,44.4,43.6,30.25,ENE,76,0.0,0.0,97,0.00,,,0.00,VWS V14.01,2013-09-29 07:42:00,
2013-09-29 03:47:00,44.3,43.5,30.25,ENE,76,0.0,0.0,97,0.00,,,0.00,VWS V14.01,2013-09-29 07:47:00,
2013-09-29 03:52:00,44.3,43.5,30.25,ENE,76,0.0,0.0,97,0.00,,,0.00,VWS V14.01,2013-09-29 07:52:00,
2013-09-29 03:57:00,44.2,43.4,30.26,ENE,76,0.0,0.0,97,0.00,,,0.00,VWS V14.01,2013-09-29 07:57:00,
2013-09-29 04:02:00,44.1,43.3,30.25,ENE,76,0.0,0.0,97,0.00,,,0.00,VWS V14.01,2013-09-29 08:02:00,
2013-09-29 04:07:00,44.0,43.5,30.26,ENE,76,0.0,0.0,98,0.00,,,0.00,VWS V14.01,2013-09-29 08:07:00,
2013-09-29 04:12:00,44.1,43.6,30.25,ENE,76,0.0,0.0,98,0.00,,,0.00,VWS V14.01,2013-09-29 08:12:00,
2013-09-29 04:17:00,44.1,43.6,30.26,ENE,76,0.0,0.0,98,0.00,,,0.00,VWS V14.01,2013-09-29 08:17:00,
2013-09-29 04:22:00,44.0,43.5,30.26,ENE,76,0.0,0.0,98,0.00,,,0.00,VWS V14.01,2013-09-29 08:22:00,
2013-09-29 04:27:00,43.9,43.4,30.25,ENE,76,0.0,0.0,98,0.00,,,0.00,VWS V14.01,2013-09-29 08:27:00,
2013-09-29 04:32:00,43.8,43.3,30.26,ENE,76,0.0,0.0,98,0.00,,,0.00,VWS V14.01,2013-09-29 08:32:00,
2013-09-29 04:37:00,43.6,43.1,30.26,ENE,76,0.0,0.0,98,0.00,,,0.00,VWS V14.01,2013-09-29 08:37:00,
2013-09-29 04:42:00,43.6,43.1,30.25,ENE,76,0.0,0.0,98,0.00,,,0.08,VWS V14.01,2013-09-29 08:42:00,
2013-09-29 04:47:00,43.7,43.2,30.25,ENE,76,0.0,0.0,98,0.00,,,0.00,VWS V14.01,2013-09-29 08:47:00,
2013-09-29 04:52:00,43.7,43.2,30.25,ENE,76,0.0,0.0,98,0.00,,,0.00,VWS V14.01,2013-09-29 08:52:00,
2013-09-29 04:57:00,43.7,43.2,30.25,ENE,76,0.0,0.0,98,0.00,,,0.00,VWS V14.01,2013-09-29 08:57:00,
2013-09-29 05:02:00,43.7,43.2,30.25,ENE,76,0.0,0.0,98,0.00,,,0.00,VWS V14.01,2013-09-29 09:02:00,
2013-09-29 05:07:00,43.8,43.3,30.25,ENE,76,0.0,0.0,98,0.00,,,0.00,VWS V14.01,2013-09-29 09:07:00,
2013-09-29 05:12:00,43.9,43.4,30.25,ENE,76,0.0,0.0,98,0.00,,,0.00,VWS V14.01,2013-09-29 09:12:00,
2013-09-29 05:17:00,43.9,43.4,30.25,ENE,76,0.0,0.0,98,0.00,,,0.00,VWS V14.01,2013-09-29 09:17:00,
2013-09-29 05:22:00,44.0,43.5,30.25,ENE,76,0.0,0.0,98,0.00,,,0.00,VWS V14.01,2013-09-29 09:22:00,
2013-09-29 05:28:00,44.0,43.5,30.25,ENE,76,0.0,0.0,98,0.00,,,0.00,VWS V14.01,2013-09-29 09:28:00,
2013-09-29 05:33:00,44.1,43.6,30.26,ENE,76,0.0,0.0,98,0.00,,,0.00,VWS V14.01,2013-09-29 09:33:00,
2013-09-29 05:38:00,44.2,43.7,30.26,ENE,76,0.0,0.0,98,0.00,,,0.00,VWS V14.01,2013-09-29 09:38:00,
2013-09-29 05:43:00,44.5,44.0,30.26,ENE,76,0.0,1.0,98,0.00,,,0.00,VWS V14.01,2013-09-29 09:43:00,
2013-09-29 05:48:00,44.6,44.3,30.26,ENE,76,0.0,1.0,99,0.00,,,0.00,VWS V14.01,2013-09-29 09:48:00,
2013-09-29 05:53:00,44.8,44.5,30.26,ENE,76,0.0,1.0,99,0.00,,,0.00,VWS V14.01,2013-09-29 09:53:00,
2013-09-29 05:58:00,45.0,44.7,30.25,ENE,76,0.0,1.0,99,0.00,,,0.00,VWS V14.01,2013-09-29 09:58:00,
2013-09-29 06:03:00,45.2,44.9,30.26,ENE,76,0.0,0.0,99,0.00,,,0.08,VWS V14.01,2013-09-29 10:03:00,
2013-09-29 06:08:00,45.4,44.9,30.26,ENE,76,0.0,0.0,98,0.00,,,0.00,VWS V14.01,2013-09-29 10:08:00,
2013-09-29 06:13:00,45.5,45.2,30.26,ENE,76,0.0,0.0,99,0.00,,,0.00,VWS V14.01,2013-09-29 10:13:00,
2013-09-29 06:18:00,45.6,45.3,30.26,ENE,76,0.0,0.0,99,0.00,,,0.00,VWS V14.01,2013-09-29 10:18:00,
2013-09-29 06:23:00,45.7,45.4,30.26,ENE,76,0.0,0.0,99,0.00,,,0.00,VWS V14.01,2013-09-29 10:23:00,
2013-09-29 06:28:00,45.7,45.4,30.26,ENE,76,0.0,0.0,99,0.00,,,0.00,VWS V14.01,2013-09-29 10:28:00,
2013-09-29 06:33:00,45.8,45.5,30.26,ENE,76,0.0,0.0,99,0.00,,,0.00,VWS V14.01,2013-09-29 10:33:00,
2013-09-29 06:38:00,45.9,45.6,30.26,ENE,76,0.0,0.0,99,0.00,,,0.00,VWS V14.01,2013-09-29 10:38:00,
2013-09-29 06:43:00,45.9,45.6,30.26,ENE,76,0.0,0.0,99,0.00,,,0.00,VWS V14.01,2013-09-29 10:43:00,
2013-09-29 06:48:00,45.9,45.6,30.26,ENE,76,0.0,0.0,99,0.00,,,0.00,VWS V14.01,2013-09-29 10:48:00,
2013-09-29 06:53:00,46.0,45.7,30.26,ENE,76,0.0,0.0,99,0.00,,,0.00,VWS V14.01,2013-09-29 10:53:00,
2013-09-29 06:58:00,46.0,45.7,30.26,ENE,76,0.0,0.0,99,0.00,,,0.00,VWS V14.01,2013-09-29 10:58:00,
2013-09-29 07:03:00,46.2,45.9,30.26,ENE,76,0.0,0.0,99,0.00,,,0.00,VWS V14.01,2013-09-29 11:03:00,
2013-09-29 07:08:00,46.3,46.0,30.26,ENE,76,0.0,0.0,99,0.00,,,0.00,VWS V14.01,2013-09-29 11:08:00,
2013-09-29 07:13:00,46.3,46.0,30.27,ENE,76,0.0,0.0,99,0.00,,,0.00,VWS V14.01,2013-09-29 11:13:00,
2013-09-29 07:18:00,46.3,46.0,30.26,ENE,76,0.0,2.0,99,0.00,,,0.00,VWS V14.01,2013-09-29 11:18:00,
2013-09-29 07:23:00,46.5,46.2,30.26,ENE,76,2.0,2.0,99,0.00,,,0.00,VWS V14.01,2013-09-29 11:23:00,
2013-09-29 07:28:00,46.6,46.6,30.27,ENE,76,2.0,2.0,100,0.00,,,0.00,VWS V14.01,2013-09-29 11:28:00,
2013-09-29 07:33:00,46.7,46.4,30.27,NE,48,2.0,4.0,99,0.00,,,0.00,VWS V14.01,2013-09-29 11:33:00,
2013-09-29 07:38:00,46.8,46.5,30.27,NE,49,1.0,4.0,99,0.00,,,0.00,VWS V14.01,2013-09-29 11:38:00,
2013-09-29 07:43:00,46.9,46.6,30.27,NE,49,0.0,4.0,99,0.00,,,0.00,VWS V14.01,2013-09-29 11:43:00,
2013-09-29 07:48:00,47.0,47.0,30.27,NE,49,0.0,4.0,100,0.00,,,0.00,VWS V14.01,2013-09-29 11:48:00,
2013-09-29 07:53:00,47.0,46.7,30.27,NE,49,0.0,4.0,99,0.00,,,0.00,VWS V14.01,2013-09-29 11:53:00,
2013-09-29 07:58:00,47.0,46.7,30.27,NE,49,2.0,4.0,99,0.00,,,0.00,VWS V14.01,2013-09-29 11:58:00,
2013-09-29 08:03:00,46.9,46.9,30.26,NE,49,0.0,1.0,100,0.00,,,0.00,VWS V14.01,2013-09-29 12:03:00,
2013-09-29 08:08:00,46.9,46.6,30.27,NE,49,0.0,1.0,99,0.00,,,0.00,VWS V14.01,2013-09-29 12:08:00,
2013-09-29 08:13:00,46.9,46.6,30.27,NE,49,0.0,1.0,99,0.00,,,0.00,VWS V14.01,2013-09-29 12:13:00,
2013-09-29 08:18:00,46.9,46.9,30.26,NE,49,0.0,1.0,100,0.00,,,0.00,VWS V14.01,2013-09-29 12:18:00,
2013-09-29 08:23:00,47.0,46.7,30.26,NE,49,1.0,2.0,99,0.00,,,0.00,VWS V14.01,2013-09-29 12:23:00,
2013-09-29 08:28:00,47.2,47.2,30.26,ENE,58,0.0,3.0,100,0.00,,,0.00,VWS V14.01,2013-09-29 12:28:00,
2013-09-29 08:33:00,47.4,47.4,30.26,ENE,58,0.0,3.0,100,0.00,,,0.00,VWS V14.01,2013-09-29 12:33:00,
2013-09-29 08:38:00,47.5,47.5,30.26,ENE,58,0.0,3.0,100,0.00,,,0.00,VWS V14.01,2013-09-29 12:38:00,
2013-09-29 08:43:00,47.8,47.8,30.26,ENE,58,0.0,3.0,100,0.00,,,0.00,VWS V14.01,2013-09-29 12:43:00,
2013-09-29 08:48:00,48.2,48.2,30.26,ENE,58,0.0,3.0,100,0.00,,,0.00,VWS V14.01,2013-09-29 12:48:00,
2013-09-29 08:53:00,48.4,48.4,30.26,ENE,58,0.0,3.0,100,0.00,,,0.00,VWS V14.01,2013-09-29 12:53:00,
2013-09-29 08:58:00,48.5,48.5,30.26,ENE,58,0.0,3.0,100,0.00,,,0.00,VWS V14.01,2013-09-29 12:58:00,
2013-09-29 09:03:00,48.7,48.7,30.26,ENE,59,0.0,0.0,100,0.00,,,0.00,VWS V14.01,2013-09-29 13:03:00,
2013-09-29 09:08:00,48.9,48.9,30.26,ENE,59,0.0,0.0,100,0.00,,,0.00,VWS V14.01,2013-09-29 13:08:00,
2013-09-29 09:13:00,49.4,49.4,30.26,SSE,160,0.0,3.0,100,0.00,,,0.00,VWS V14.01,2013-09-29 13:13:00,
2013-09-29 09:18:00,49.9,49.9,30.26,SSE,160,0.0,3.0,100,0.00,,,0.00,VWS V14.01,2013-09-29 13:18:00,
2013-09-29 09:23:00,50.4,50.4,30.25,SSE,160,0.0,4.0,100,0.00,,,0.00,VWS V14.01,2013-09-29 13:23:00,
2013-09-29 09:28:00,51.0,51.0,30.25,SE,133,0.0,4.0,100,0.00,,,0.00,VWS V14.01,2013-09-29 13:28:00,
2013-09-29 09:33:00,51.7,51.7,30.25,SSE,150,0.0,1.0,100,0.00,,,0.00,VWS V14.01,2013-09-29 13:33:00,
2013-09-29 09:38:00,52.4,52.4,30.25,SE,136,0.0,1.0,100,0.00,,,0.00,VWS V14.01,2013-09-29 13:38:00,
2013-09-29 09:43:00,53.2,53.2,30.25,SSE,151,0.0,1.0,100,0.00,,,0.00,VWS V14.01,2013-09-29 13:43:00,
2013-09-29 09:48:00,53.9,53.9,30.25,SSE,160,0.0,4.0,100,0.00,,,0.00,VWS V14.01,2013-09-29 13:48:00,
2013-09-29 09:53:00,54.8,54.8,30.25,SSE,160,0.0,4.0,100,0.00,,,0.00,VWS V14.01,2013-09-29 13:53:00,
2013-09-29 09:58:00,55.7,55.7,30.25,SSE,157,0.0,4.0,100,0.00,,,0.00,VWS V14.01,2013-09-29 13:58:00,
2013-09-29 10:03:00,56.5,56.5,30.25,SSE,159,0.0,0.0,100,0.00,,,0.00,VWS V14.01,2013-09-29 14:03:00,
2013-09-29 10:08:00,57.4,57.4,30.25,SSE,156,0.0,0.0,100,0.00,,,0.00,VWS V14.01,2013-09-29 14:08:00,
2013-09-29 10:13:00,58.5,58.5,30.25,SSE,158,1.0,4.0,100,0.00,,,0.00,VWS V14.01,2013-09-29 14:13:00,
2013-09-29 10:18:00,59.4,59.1,30.25,SSE,150,1.0,5.0,99,0.00,,,0.00,VWS V14.01,2013-09-29 14:18:00,
2013-09-29 10:23:00,60.4,59.8,30.25,SSE,151,0.0,5.0,98,0.00,,,0.00,VWS V14.01,2013-09-29 14:23:00,
2013-09-29 10:29:00,61.5,60.1,30.25,SSE,160,2.0,5.0,95,0.00,,,0.00,VWS V14.01,2013-09-29 14:29:00,
2013-09-29 10:34:00,62.4,59.1,30.25,SSE,160,0.0,4.0,89,0.00,,FEW002,0.00,VWS V14.01,2013-09-29 14:34:00,
2013-09-29 10:39:00,63.2,58.3,30.25,SSE,159,0.0,5.0,84,0.00,,FEW002,0.08,VWS V14.01,2013-09-29 14:39:00,
2013-09-29 10:44:00,63.9,58.3,30.25,SE,132,2.0,5.0,82,0.00,,FEW002,0.00,VWS V14.01,2013-09-29 14:44:00,
2013-09-29 10:49:00,64.6,58.0,30.25,SE,137,2.0,5.0,79,0.00,,FEW002,0.00,VWS V14.01,2013-09-29 14:49:00,
2013-09-29 10:54:00,65.3,58.3,30.25,SE,136,0.0,5.0,78,0.00,,FEW002,0.00,VWS V14.01,2013-09-29 14:54:00,
2013-09-29 10:59:00,66.2,58.4,30.25,SSE,158,2.0,5.0,76,0.00,,FEW002,0.00,VWS V14.01,2013-09-29 14:59:00,
2013-09-29 11:04:00,66.7,58.2,30.24,SSE,159,0.0,3.0,74,0.00,,CLR,0.00,VWS V14.01,2013-09-29 15:04:00,
2013-09-29 11:09:00,67.7,58.4,30.24,SSE,154,2.0,4.0,72,0.00,,CLR,0.00,VWS V14.01,2013-09-29 15:09:00,
2013-09-29 11:14:00,68.3,58.5,30.24,South,169,1.0,5.0,71,0.00,,CLR,0.00,VWS V14.01,2013-09-29 15:14:00,
2013-09-29 11:19:00,68.9,59.1,30.24,South,169,3.0,5.0,71,0.00,,CLR,0.00,VWS V14.01,2013-09-29 15:19:00,
2013-09-29 11:24:00,69.2,59.0,30.23,South,170,2.0,5.0,70,0.00,,CLR,0.00,VWS V14.01,2013-09-29 15:24:00,
2013-09-29 11:29:00,69.5,58.9,30.23,South,174,4.0,5.0,69,0.00,,CLR,0.00,VWS V14.01,2013-09-29 15:29:00,
2013-09-29 11:34:00,69.7,59.1,30.23,SSW,210,3.0,7.0,69,0.00,,CLR,0.00,VWS V14.01,2013-09-29 15:34:00,
2013-09-29 11:39:00,70.1,59.1,30.23,SSW,201,6.0,7.0,68,0.00,,CLR,0.00,VWS V14.01,2013-09-29 15:39:00,
2013-09-29 11:44:00,70.4,58.5,30.22,SSW,201,2.0,7.0,66,0.00,,CLR,0.00,VWS V14.01,2013-09-29 15:44:00,
2013-09-29 11:49:00,70.6,59.5,30.22,SSW,201,1.0,7.0,68,0.00,,CLR,0.00,VWS V14.01,2013-09-29 15:49:00,
2013-09-29 11:54:00,71.3,59.4,30.22,South,190,0.0,7.0,66,0.00,,CLR,0.00,VWS V14.01,2013-09-29 15:54:00,
2013-09-29 11:59:00,71.7,58.9,30.22,South,187,4.0,7.0,64,0.00,,CLR,0.00,VWS V14.01,2013-09-29 15:59:00,
2013-09-29 12:04:00,71.9,58.6,30.22,SSW,198,1.0,4.0,63,0.00,,CLR,0.00,VWS V14.01,2013-09-29 16:04:00,
2013-09-29 12:09:00,71.9,58.2,30.21,WSW,239,0.0,5.0,62,0.00,,CLR,0.00,VWS V14.01,2013-09-29 16:09:00,
2013-09-29 12:14:00,71.9,58.2,30.21,NNW,343,1.0,6.0,62,0.00,,CLR,0.00,VWS V14.01,2013-09-29 16:14:00,
2013-09-29 12:19:00,71.4,58.2,30.21,West,266,2.0,6.0,63,0.00,,CLR,0.00,VWS V14.01,2013-09-29 16:19:00,
2013-09-29 12:24:00,71.5,58.7,30.21,WSW,250,3.0,6.0,64,0.00,,CLR,0.00,VWS V14.01,2013-09-29 16:24:00,
2013-09-29 12:29:00,71.9,57.7,30.21,WSW,248,0.0,6.0,61,0.00,,CLR,0.00,VWS V14.01,2013-09-29 16:29:00,
2013-09-29 12:34:00,72.5,56.9,30.21,SW,230,4.0,7.0,58,0.00,,CLR,0.00,VWS V14.01,2013-09-29 16:34:00,
2013-09-29 12:39:00,72.8,57.7,30.20,SSW,192,0.0,7.0,59,0.00,,CLR,0.00,VWS V14.01,2013-09-29 16:39:00,
2013-09-29 12:44:00,73.1,57.9,30.20,SSW,198,0.0,7.0,59,0.00,,CLR,0.00,VWS V14.01,2013-09-29 16:44:00,
2013-09-29 12:49:00,72.9,56.8,30.20,NNW,347,3.0,7.0,57,0.00,,CLR,0.00,VWS V14.01,2013-09-29 16:49:00,
2013-09-29 12:54:00,72.7,57.6,30.20,NNW,348,0.0,7.0,59,0.00,,CLR,0.00,VWS V14.01,2013-09-29 16:54:00,
2013-09-29 12:59:00,73.0,56.9,30.20,West,264,3.0,7.0,57,0.00,,CLR,0.00,VWS V14.01,2013-09-29 16:59:00,
2013-09-29 13:04:00,72.5,57.4,30.20,SW,236,1.0,6.0,59,0.00,,FEW038,0.00,VWS V14.01,2013-09-29 17:04:00,
2013-09-29 13:09:00,72.4,57.3,30.19,SW,236,2.0,6.0,59,0.00,,FEW038,0.00,VWS V14.01,2013-09-29 17:09:00,
2013-09-29 13:15:00,72.1,57.0,30.19,WSW,237,1.0,7.0,59,0.00,,FEW038,0.00,VWS V14.01,2013-09-29 17:15:00,
2013-09-29 13:20:00,72.2,57.6,30.19,WSW,240,0.0,7.0,60,0.00,,FEW038,0.00,VWS V14.01,2013-09-29 17:20:00,
2013-09-29 13:25:00,72.3,57.2,30.19,SW,216,4.0,7.0,59,0.00,,FEW038,0.00,VWS V14.01,2013-09-29 17:25:00,
2013-09-29 13:30:00,72.6,57.5,30.18,SSW,207,1.0,8.0,59,0.00,,FEW038,0.00,VWS V14.01,2013-09-29 17:30:00,
2013-09-29 13:35:00,72.4,57.3,30.18,SW,223,2.0,7.0,59,0.00,,FEW038,0.00,VWS V14.01,2013-09-29 17:35:00,
2013-09-29 13:40:00,72.1,57.5,30.18,SW,232,2.0,7.0,60,0.00,,FEW038,0.00,VWS V14.01,2013-09-29 17:40:00,
2013-09-29 13:45:00,72.0,56.9,30.18,SW,232,4.0,7.0,59,0.00,,FEW038,0.00,VWS V14.01,2013-09-29 17:45:00,
2013-09-29 13:50:00,71.7,57.1,30.17,SSW,203,3.0,7.0,60,0.00,,FEW038,0.00,VWS V14.01,2013-09-29 17:50:00,
2013-09-29 13:55:00,71.5,56.9,30.17,SW,230,2.0,7.0,60,0.00,,FEW038,0.00,VWS V14.01,2013-09-29 17:55:00,
2013-09-29 14:00:00,71.4,56.8,30.17,SSW,208,2.0,3.0,60,0.00,,FEW038,0.00,VWS V14.01,2013-09-29 18:00:00,
2013-09-29 14:05:00,71.1,57.0,30.17,SW,219,3.0,4.0,61,0.00,,FEW042,0.00,VWS V14.01,2013-09-29 18:05:00,
2013-09-29 14:10:00,71.0,56.4,30.17,SSW,212,3.0,5.0,60,0.00,,FEW042,0.00,VWS V14.01,2013-09-29 18:10:00,
2013-09-29 14:15:00,71.3,56.7,30.17,SW,225,0.0,7.0,60,0.00,,FEW042,0.00,VWS V14.01,2013-09-29 18:15:00,
2013-09-29 14:20:00,71.9,56.3,30.16,SW,222,2.0,7.0,58,0.00,,FEW042,0.00,VWS V14.01,2013-09-29 18:20:00,
2013-09-29 14:25:00,72.3,56.2,30.16,WSW,256,2.0,7.0,57,0.00,,FEW042,0.00,VWS V14.01,2013-09-29 18:25:00,
2013-09-29 14:30:00,72.4,56.3,30.16,WSW,256,0.0,0.0,57,0.00,,FEW042,0.00,VWS V14.01,2013-09-29 18:30:00,
2013-09-29 14:35:00,72.5,56.4,30.16,West,280,2.0,4.0,57,0.00,,FEW042,0.00,VWS V14.01,2013-09-29 18:35:00,
2013-09-29 14:40:00,72.6,56.5,30.16,WSW,237,4.0,5.0,57,0.00,,FEW042,0.00,VWS V14.01,2013-09-29 18:40:00,
2013-09-29 14:45:00,72.4,56.3,30.15,WSW,242,0.0,5.0,57,0.00,,FEW042,0.00,VWS V14.01,2013-09-29 18:45:00,
2013-09-29 14:50:00,72.5,57.4,30.15,WSW,242,0.0,5.0,59,0.00,,FEW042,0.00,VWS V14.01,2013-09-29 18:50:00,
2013-09-29 14:55:00,72.7,57.1,30.15,SW,231,1.0,5.0,58,0.00,,FEW042,0.00,VWS V14.01,2013-09-29 18:55:00,
2013-09-29 15:00:00,72.8,56.7,30.15,SW,231,1.0,3.0,57,0.00,,FEW042,0.00,VWS V14.01,2013-09-29 19:00:00,
2013-09-29 15:05:00,72.7,55.6,30.15,South,189,4.0,8.0,55,0.00,,CLR,0.00,VWS V14.01,2013-09-29 19:05:00,
2013-09-29 15:10:00,72.5,55.4,30.15,SSW,204,0.0,8.0,55,0.00,,CLR,0.00,VWS V14.01,2013-09-29 19:10:00,
2013-09-29 15:15:00,72.4,55.8,30.14,South,170,0.0,8.0,56,0.00,,CLR,0.00,VWS V14.01,2013-09-29 19:15:00,
2013-09-29 15:20:00,72.3,55.2,30.14,ESE,123,4.0,8.0,55,0.00,,CLR,0.00,VWS V14.01,2013-09-29 19:20:00,
2013-09-29 15:25:00,72.5,56.4,30.14,SE,145,0.0,8.0,57,0.00,,CLR,0.00,VWS V14.01,2013-09-29 19:25:00,
2013-09-29 15:30:00,73.2,56.1,30.14,South,190,5.0,6.0,55,0.00,,CLR,0.00,VWS V14.01,2013-09-29 19:30:00,
2013-09-29 15:35:00,73.3,55.7,30.14,South,181,5.0,6.0,54,0.00,,CLR,0.00,VWS V14.01,2013-09-29 19:35:00,
2013-09-29 15:40:00,73.0,55.9,30.14,South,180,0.0,6.0,55,0.00,,CLR,0.00,VWS V14.01,2013-09-29 19:40:00,
2013-09-29 15:45:00,72.8,56.2,30.14,South,180,4.0,6.0,56,0.00,,CLR,0.00,VWS V14.01,2013-09-29 19:45:00,
2013-09-29 15:48:00,72.7,56.1,30.14,South,180,2.0,6.0,56,0.00,,CLR,0.00,VWS V14.01,2013-09-29 19:48:00,
2013-09-29 15:53:00,72.5,55.9,30.14,South,180,1.0,6.0,56,0.00,,CLR,0.00,VWS V14.01,2013-09-29 19:53:00,
2013-09-29 15:58:00,72.5,55.9,30.13,South,180,1.0,6.0,56,0.00,,CLR,0.00,VWS V14.01,2013-09-29 19:58:00,
2013-09-29 16:03:00,72.5,55.4,30.13,South,180,1.0,4.0,55,0.00,,OVC050,0.00,VWS V14.01,2013-09-29 20:03:00,
2013-09-29 16:08:00,72.7,55.1,30.13,South,184,2.0,8.0,54,0.00,,OVC050,0.00,VWS V14.01,2013-09-29 20:08:00,
2013-09-29 16:13:00,73.1,55.5,30.13,SSE,167,0.0,8.0,54,0.00,,OVC050,0.00,VWS V14.01,2013-09-29 20:13:00,
2013-09-29 16:18:00,73.2,55.1,30.13,SSW,201,3.0,8.0,53,0.00,,OVC050,0.00,VWS V14.01,2013-09-29 20:18:00,
2013-09-29 16:23:00,73.0,55.4,30.13,South,182,4.0,8.0,54,0.00,,OVC050,0.00,VWS V14.01,2013-09-29 20:23:00,
2013-09-29 16:28:00,72.7,55.1,30.13,SSW,203,2.0,8.0,54,0.00,,OVC050,0.00,VWS V14.01,2013-09-29 20:28:00,
2013-09-29 16:33:00,72.5,54.9,30.12,SSW,202,0.0,4.0,54,0.00,,OVC050,0.00,VWS V14.01,2013-09-29 20:33:00,
2013-09-29 16:38:00,72.5,54.9,30.12,SSW,203,1.0,4.0,54,0.00,,OVC050,0.00,VWS V14.01,2013-09-29 20:38:00,
2013-09-29 16:43:00,73.2,55.6,30.12,SSW,202,0.0,4.0,54,0.00,,OVC050,0.00,VWS V14.01,2013-09-29 20:43:00,
2013-09-29 16:48:00,74.1,55.4,30.12,SE,143,0.0,5.0,52,0.00,,OVC050,0.00,VWS V14.01,2013-09-29 20:48:00,
2013-09-29 16:53:00,74.5,54.7,30.12,South,173,0.0,5.0,50,0.00,,OVC050,0.00,VWS V14.01,2013-09-29 20:53:00,
2013-09-29 16:58:00,74.3,55.0,30.13,ESE,110,2.0,7.0,51,0.00,,OVC050,0.00,VWS V14.01,2013-09-29 20:58:00,
2013-09-29 17:03:00,73.8,55.1,30.13,SSE,168,0.0,6.0,52,0.00,,BKN055,0.00,VWS V14.01,2013-09-29 21:03:00,
2013-09-29 17:08:00,73.5,55.3,30.13,SSW,192,3.0,6.0,53,0.00,,BKN055,0.00,VWS V14.01,2013-09-29 21:08:00,
2013-09-29 17:13:00,73.1,55.5,30.12,South,181,0.0,6.0,54,0.00,,BKN055,0.00,VWS V14.01,2013-09-29 21:13:00,
2013-09-29 17:18:00,72.6,55.0,30.13,South,181,3.0,7.0,54,0.00,,BKN055,0.00,VWS V14.01,2013-09-29 21:18:00,
2013-09-29 17:23:00,72.0,55.5,30.13,SE,140,3.0,7.0,56,0.00,,BKN055,0.00,VWS V14.01,2013-09-29 21:23:00,
2013-09-29 17:28:00,71.5,55.0,30.13,South,175,1.0,7.0,56,0.00,,BKN055,0.00,VWS V14.01,2013-09-29 21:28:00,
2013-09-29 17:33:00,71.4,54.9,30.12,South,175,0.0,3.0,56,0.00,,BKN055,0.00,VWS V14.01,2013-09-29 21:33:00,
2013-09-29 17:38:00,71.8,55.3,30.13,South,174,0.0,3.0,56,0.00,,BKN055,0.00,VWS V14.01,2013-09-29 21:38:00,
2013-09-29 17:43:00,72.1,55.1,30.13,South,174,0.0,3.0,55,0.00,,BKN055,0.00,VWS V14.01,2013-09-29 21:43:00,
2013-09-29 17:48:00,71.9,55.4,30.13,South,175,0.0,5.0,56,0.00,,BKN055,0.00,VWS V14.01,2013-09-29 21:48:00,
2013-09-29 17:53:00,71.5,55.5,30.13,South,175,0.0,5.0,57,0.00,,BKN055,0.00,VWS V14.01,2013-09-29 21:53:00,
2013-09-29 17:58:00,71.2,55.7,30.13,SSE,160,0.0,5.0,58,0.00,,BKN055,0.00,VWS V14.01,2013-09-29 21:58:00,
2013-09-29 18:03:00,70.7,55.2,30.13,SSE,168,0.0,8.0,58,0.00,,BKN055,0.00,VWS V14.01,2013-09-29 22:03:00,
2013-09-29 18:08:00,70.2,55.7,30.13,SSE,159,2.0,8.0,60,0.00,,BKN055,0.00,VWS V14.01,2013-09-29 22:08:00,
2013-09-29 18:13:00,69.7,55.7,30.13,SE,136,4.0,8.0,61,0.00,,BKN055,0.00,VWS V14.01,2013-09-29 22:13:00,
2013-09-29 18:18:00,69.1,55.5,30.13,SSE,156,0.0,8.0,62,0.00,,BKN055,0.00,VWS V14.01,2013-09-29 22:18:00,
2013-09-29 18:23:00,68.7,55.2,30.13,SSE,156,0.0,8.0,62,0.00,,BKN055,0.00,VWS V14.01,2013-09-29 22:23:00,
2013-09-29 18:28:00,68.3,55.2,30.13,South,178,0.0,8.0,63,0.00,,BKN055,0.00,VWS V14.01,2013-09-29 22:28:00,
2013-09-29 18:34:00,67.9,55.3,30.13,South,178,0.0,3.0,64,0.00,,BKN055,0.00,VWS V14.01,2013-09-29 22:34:00,
2013-09-29 18:39:00,67.7,55.1,30.13,South,178,0.0,3.0,64,0.00,,BKN055,0.00,VWS V14.01,2013-09-29 22:39:00,
2013-09-29 18:44:00,67.4,55.2,30.13,South,178,0.0,3.0,65,0.00,,BKN055,0.00,VWS V14.01,2013-09-29 22:44:00,
2013-09-29 18:49:00,67.1,55.0,30.13,South,178,1.0,3.0,65,0.00,,BKN055,0.00,VWS V14.01,2013-09-29 22:49:00,
2013-09-29 18:54:00,66.9,55.2,30.13,South,178,0.0,3.0,66,0.00,,BKN055,0.00,VWS V14.01,2013-09-29 22:54:00,
2013-09-29 18:59:00,66.7,55.4,30.13,South,178,0.0,3.0,67,0.00,,BKN055,0.00,VWS V14.01,2013-09-29 22:59:00,
2013-09-29 19:04:00,66.5,55.2,30.13,South,178,0.0,1.0,67,0.00,,SCT060,0.00,VWS V14.01,2013-09-29 23:04:00,
2013-09-29 19:09:00,66.3,55.0,30.13,South,178,0.0,2.0,67,0.00,,SCT060,0.00,VWS V14.01,2013-09-29 23:09:00,
2013-09-29 19:14:00,66.1,54.8,30.13,South,178,2.0,3.0,67,0.00,,SCT060,0.00,VWS V14.01,2013-09-29 23:14:00,
2013-09-29 19:19:00,65.9,55.0,30.13,South,178,0.0,3.0,68,0.00,,SCT060,0.00,VWS V14.01,2013-09-29 23:19:00,
2013-09-29 19:24:00,65.6,55.6,30.13,South,178,0.0,3.0,70,0.00,,SCT060,0.00,VWS V14.01,2013-09-29 23:24:00,
2013-09-29 19:29:00,65.1,55.9,30.13,South,178,0.0,3.0,72,0.00,,SCT060,0.00,VWS V14.01,2013-09-29 23:29:00,
2013-09-29 19:34:00,64.6,55.8,30.13,South,178,0.0,0.0,73,0.00,,SCT060,0.00,VWS V14.01,2013-09-29 23:34:00,
2013-09-29 19:39:00,64.2,55.8,30.13,South,178,0.0,0.0,74,0.00,,SCT060,0.00,VWS V14.01,2013-09-29 23:39:00,
2013-09-29 19:44:00,63.7,55.6,30.13,South,178,0.0,0.0,75,0.00,,SCT060,0.00,VWS V14.01,2013-09-29 23:44:00,
2013-09-29 19:49:00,63.2,55.9,30.13,South,178,0.0,0.0,77,0.00,,SCT060,0.00,VWS V14.01,2013-09-29 23:49:00,
2013-09-29 19:54:00,62.8,55.5,30.13,South,178,0.0,0.0,77,0.00,,SCT060,0.00,VWS V14.01,2013-09-29 23:54:00,
2013-09-29 19:59:00,62.4,55.1,30.13,South,178,0.0,0.0,77,0.00,,SCT060,0.00,VWS V14.01,2013-09-29 23:59:00,
2013-09-29 20:04:00,62.1,55.5,30.13,South,178,0.0,1.0,79,0.00,,CLR,0.00,VWS V14.01,2013-09-30 00:04:00,
2013-09-29 20:09:00,61.6,55.0,30.14,South,178,0.0,1.0,79,0.00,,CLR,0.00,VWS V14.01,2013-09-30 00:09:00,
2013-09-29 20:14:00,61.3,54.7,30.13,South,178,0.0,1.0,79,0.00,,CLR,0.00,VWS V14.01,2013-09-30 00:14:00,
2013-09-29 20:19:00,60.9,54.7,30.13,South,178,0.0,1.0,80,0.00,,CLR,0.00,VWS V14.01,2013-09-30 00:19:00,
2013-09-29 20:24:00,60.6,54.4,30.14,South,178,0.0,1.0,80,0.00,,CLR,0.00,VWS V14.01,2013-09-30 00:24:00,
2013-09-29 20:29:00,60.2,54.4,30.14,South,178,0.0,1.0,81,0.00,,CLR,0.00,VWS V14.01,2013-09-30 00:29:00,
2013-09-29 20:34:00,60.0,54.2,30.14,South,178,0.0,0.0,81,0.00,,CLR,0.00,VWS V14.01,2013-09-30 00:34:00,
2013-09-29 20:39:00,59.8,54.3,30.14,South,178,0.0,0.0,82,0.00,,CLR,0.00,VWS V14.01,2013-09-30 00:39:00,
2013-09-29 20:44:00,59.6,54.1,30.14,South,178,0.0,0.0,82,0.00,,CLR,0.00,VWS V14.01,2013-09-30 00:44:00,
2013-09-29 20:49:00,59.4,54.2,30.14,South,178,0.0,0.0,83,0.00,,CLR,0.00,VWS V14.01,2013-09-30 00:49:00,
2013-09-29 20:54:00,59.2,54.0,30.14,South,178,0.0,0.0,83,0.00,,CLR,0.00,VWS V14.01,2013-09-30 00:54:00,
2013-09-29 20:59:00,59.1,54.3,30.14,South,178,0.0,0.0,84,0.00,,CLR,0.00,VWS V14.01,2013-09-30 00:59:00,
2013-09-29 21:04:00,58.9,54.1,30.14,South,178,0.0,0.0,84,0.00,,CLR,0.00,VWS V14.01,2013-09-30 01:04:00,
2013-09-29 21:09:00,58.8,54.0,30.14,South,178,0.0,0.0,84,0.00,,CLR,0.00,VWS V14.01,2013-09-30 01:09:00,
2013-09-29 21:14:00,58.6,54.1,30.13,South,178,0.0,0.0,85,0.00,,CLR,0.00,VWS V14.01,2013-09-30 01:14:00,
2013-09-29 21:19:00,58.4,53.6,30.13,South,178,0.0,0.0,84,0.00,,CLR,0.00,VWS V14.01,2013-09-30 01:19:00,
2013-09-29 21:24:00,58.3,53.8,30.13,South,178,0.0,0.0,85,0.00,,CLR,0.00,VWS V14.01,2013-09-30 01:24:00,
2013-09-29 21:29:00,58.2,54.0,30.13,South,178,0.0,0.0,86,0.00,,CLR,0.00,VWS V14.01,2013-09-30 01:29:00,
2013-09-29 21:34:00,58.1,53.9,30.13,South,178,0.0,0.0,86,0.00,,CLR,0.00,VWS V14.01,2013-09-30 01:34:00,
2013-09-29 21:39:00,57.8,53.7,30.13,South,178,0.0,1.0,86,0.00,,CLR,0.00,VWS V14.01,2013-09-30 01:39:00,
2013-09-29 21:44:00,57.6,53.5,30.13,South,178,0.0,1.0,86,0.00,,CLR,0.08,VWS V14.01,2013-09-30 01:44:00,
2013-09-29 21:49:00,57.3,53.2,30.13,South,178,0.0,1.0,86,0.00,,CLR,0.00,VWS V14.01,2013-09-30 01:49:00,
2013-09-29 21:54:00,57.0,53.2,30.13,South,178,0.0,1.0,87,0.00,,CLR,0.00,VWS V14.01,2013-09-30 01:54:00,
2013-09-29 21:59:00,56.7,53.2,30.13,South,178,0.0,1.0,88,0.00,,CLR,0.00,VWS V14.01,2013-09-30 01:59:00,
2013-09-29 22:04:00,56.5,53.0,30.13,South,178,0.0,1.0,88,0.00,,CLR,0.00,VWS V14.01,2013-09-30 02:04:00,
2013-09-29 22:09:00,56.1,52.9,30.13,South,178,0.0,1.0,89,0.00,,CLR,0.00,VWS V14.01,2013-09-30 02:09:00,
2013-09-29 22:14:00,55.8,52.3,30.13,South,178,0.0,1.0,88,0.00,,CLR,0.00,VWS V14.01,2013-09-30 02:14:00,
2013-09-29 22:19:00,55.5,52.3,30.14,South,178,0.0,1.0,89,0.00,,CLR,0.08,VWS V14.01,2013-09-30 02:19:00,
2013-09-29 22:24:00,55.2,52.0,30.14,South,178,0.0,1.0,89,0.00,,CLR,0.00,VWS V14.01,2013-09-30 02:24:00,
2013-09-29 22:29:00,55.0,51.8,30.14,South,178,0.0,1.0,89,0.00,,CLR,0.00,VWS V14.01,2013-09-30 02:29:00,
2013-09-29 22:34:00,54.9,51.7,30.14,South,178,0.0,0.0,89,0.00,,CLR,0.00,VWS V14.01,2013-09-30 02:34:00,
2013-09-29 22:39:00,54.7,51.8,30.14,South,178,0.0,0.0,90,0.00,,CLR,0.00,VWS V14.01,2013-09-30 02:39:00,
2013-09-29 22:45:00,54.6,51.7,30.14,South,178,0.0,0.0,90,0.00,,CLR,0.00,VWS V14.01,2013-09-30 02:45:00,
2013-09-29 22:50:00,54.4,51.5,30.14,South,178,0.0,0.0,90,0.00,,CLR,0.00,VWS V14.01,2013-09-30 02:50:00,
2013-09-29 22:55:00,54.3,51.7,30.14,South,178,0.0,0.0,91,0.00,,CLR,0.00,VWS V14.01,2013-09-30 02:55:00,
2013-09-29 23:00:00,54.2,51.6,30.14,South,178,0.0,0.0,91,0.00,,CLR,0.00,VWS V14.01,2013-09-30 03:00:00,
2013-09-29 23:05:00,54.1,51.5,30.14,South,178,0.0,0.0,91,0.00,,CLR,0.00,VWS V14.01,2013-09-30 03:05:00,
2013-09-29 23:10:00,53.9,51.3,30.14,South,178,0.0,0.0,91,0.00,,CLR,0.00,VWS V14.01,2013-09-30 03:10:00,
2013-09-29 23:15:00,53.7,51.1,30.14,South,178,0.0,0.0,91,0.00,,CLR,0.00,VWS V14.01,2013-09-30 03:15:00,
2013-09-29 23:20:00,53.5,50.9,30.14,South,178,0.0,0.0,91,0.00,,CLR,0.00,VWS V14.01,2013-09-30 03:20:00,
2013-09-29 23:25:00,53.2,50.7,30.14,South,178,0.0,0.0,91,0.00,,CLR,0.00,VWS V14.01,2013-09-30 03:25:00,
2013-09-29 23:30:00,52.9,50.3,30.14,South,178,0.0,0.0,91,0.00,,CLR,0.00,VWS V14.01,2013-09-30 03:30:00,
2013-09-29 23:35:00,52.7,50.2,30.14,South,178,0.0,0.0,91,0.00,,CLR,0.00,VWS V14.01,2013-09-30 03:35:00,
2013-09-29 23:40:00,52.4,50.2,30.14,South,178,0.0,0.0,92,0.00,,CLR,0.00,VWS V14.01,2013-09-30 03:40:00,
2013-09-29 23:45:00,52.1,49.6,30.14,South,178,0.0,0.0,91,0.00,,CLR,0.00,VWS V14.01,2013-09-30 03:45:00,
2013-09-29 23:50:00,51.9,49.7,30.14,South,178,0.0,0.0,92,0.00,,CLR,0.00,VWS V14.01,2013-09-30 03:50:00,
2013-09-29 23:55:00,51.6,49.4,30.14,South,178,0.0,0.0,92,0.00,,CLR,0.00,VWS V14.01,2013-09-30 03:55:00,